Trinidad, CO

8:15 PM MST on February 12, 2016 (GMT -0700)
Stokes

Weather History for KTAD - January, 2014

Change the Weather History Date:

Thursday, January 9, 2014

  Actual Average Record
Temperature  
Mean Temperature 39 °F 32 °F  
Max Temperature 52 °F 47 °F 99 °F (2012)
Min Temperature 26 °F 17 °F -20 °F (1962)
Degree Days  
Heating Degree Days 26 33  
Month to date heating degree days 321 297  
Since 1 July heating degree days 2500 2565  
Cooling Degree Days 0 0  
Month to date cooling degree days 0 0  
Year to date cooling degree days 0 0  
Moisture  
Dew Point 15 °F    
Average Humidity 42    
Maximum Humidity 63    
Minimum Humidity 21    
Precipitation  
Precipitation 0.00 in 0.01 in 0.40 in (1985)
Month to date precipitation T  
Year to date precipitation T  
Sea Level Pressure  
Sea Level Pressure 29.82 in    
Wind  
Wind Speed 12 mph (WSW)    
Max Wind Speed 32 mph    
Max Gust Speed 42 mph    
Visibility 10 miles    
Events      
T = Trace of Precipitation, MM = Missing Value Source: NWS Daily Summary

Daily Weather History Graph

Daily Weather History Graph

Search for Another Location

Airport or City:

Trip Planner

Search our weather history database for the weather conditions in past years. The results will help you decide how hot, cold, wet, or windy it might be!

Date:

Astronomy

Jan. 09, 2014 Rise Set
Actual Time 7:11 AM MST 4:57 PM MST
Civil Twilight 6:42 AM MST 5:26 PM MST
Nautical Twilight 6:10 AM MST 5:58 PM MST
Astronomical Twilight 5:39 AM MST 6:30 PM MST
Moon 12:23 PM MST (1/9) 1:24 AM MST (1/9)
Length of Visible Light 10h 43m
Length of Day
9h 46m
Waxing Gibbous, 66% of the Moon is Illuminated
Jan 9
Waxing Gibbous
Jan 15
Full
Jan 23
Last Quarter
Jan 30
New
Feb 6
First Quarter

Hourly Weather History & Observations

Time (MST) Temp. Windchill Dew Point Humidity Pressure Visibility Wind Dir Wind Speed Gust Speed Precip Events Conditions
12:54 AM 32.0 °F 24.2 °F 16.0 °F 52% 29.97 in 10.0 mi West 9.2 mph - N/A   Clear
1:54 AM 28.9 °F 18.6 °F 16.0 °F 58% 29.96 in 10.0 mi WSW 12.7 mph - N/A   Clear
2:54 AM 27.0 °F 16.1 °F 16.0 °F 63% 29.97 in 10.0 mi SW 12.7 mph - N/A   Clear
3:54 AM 26.1 °F 21.9 °F 15.1 °F 63% 29.97 in 10.0 mi West 3.5 mph - N/A   Clear
4:54 AM 28.0 °F 16.1 °F 16.0 °F 61% 29.97 in 10.0 mi WSW 16.1 mph - N/A   Clear
5:54 AM 28.0 °F 15.7 °F 15.1 °F 58% 29.96 in 10.0 mi WSW 17.3 mph - N/A   Clear
6:54 AM 27.0 °F 15.6 °F 15.1 °F 61% 29.96 in 10.0 mi WSW 13.8 mph - N/A   Clear
7:54 AM 28.9 °F 18.2 °F 16.0 °F 58% 29.96 in 10.0 mi WSW 13.8 mph - N/A   Clear
8:54 AM 36.0 °F 28.0 °F 17.1 °F 46% 29.94 in 10.0 mi West 11.5 mph - N/A   Clear
9:54 AM 44.1 °F 39.5 °F 15.1 °F 31% 29.89 in 10.0 mi SW 8.1 mph - N/A   Clear
10:54 AM 48.9 °F - 12.0 °F 23% 29.81 in 10.0 mi SSW 15.0 mph - N/A   Clear
11:54 AM 48.0 °F - 15.1 °F 27% 29.78 in 10.0 mi SE 5.8 mph - N/A   Clear
12:54 PM 51.1 °F - 12.0 °F 21% 29.71 in 10.0 mi East 8.1 mph - N/A   Clear
1:54 PM 51.1 °F - 12.0 °F 21% 29.72 in 10.0 mi East 8.1 mph - N/A   Clear
2:54 PM 50.0 °F - 12.0 °F 22% 29.72 in 10.0 mi ENE 11.5 mph - N/A   Clear
4:54 PM 45.0 °F 39.3 °F 14.0 °F 29% 29.74 in 10.0 mi NE 11.5 mph 19.6 mph N/A   Clear
5:54 PM 45.0 °F 42.6 °F 10.9 °F 25% 29.75 in 10.0 mi Variable 4.6 mph - N/A   Clear
6:54 PM 41.0 °F 38.0 °F 10.9 °F 29% 29.75 in 10.0 mi West 4.6 mph - N/A   Clear
7:54 PM 37.9 °F 34.4 °F 12.9 °F 36% 29.75 in 10.0 mi West 4.6 mph - N/A   Clear
8:54 PM 37.0 °F 31.0 °F 14.0 °F 39% 29.72 in 10.0 mi West 8.1 mph - N/A   Clear
9:54 PM 39.9 °F 30.8 °F 14.0 °F 35% 29.66 in 10.0 mi West 18.4 mph - N/A   Clear
10:54 PM 41.0 °F 30.0 °F 18.0 °F 40% 29.63 in 10.0 mi West 28.8 mph 35.7 mph N/A   Clear
11:54 PM 39.0 °F 28.0 °F 19.0 °F 45% 29.61 in 10.0 mi West 25.3 mph 33.4 mph N/A   Clear